KI5NXU Weather Reports


Display with metric or nautical units.
time (UTC)temp
F
wind
direction
speed
MPH
gust
MPH
rain 1hr
in
rain 24hr
in
rain mn
in
humidity
%
barometer
mb
20260906171756 95 67 2.0 2.0 0.00 0.00 0.00 48 1014.1
20260906171251 95 75 3.0 6.0 0.00 0.00 0.00 47 1014.2
20260906170747 98 46 2.0 5.0 0.00 0.00 0.00 45 1014.2
20260906170243 98 128 1.0 1.0 0.00 0.00 0.00 44 1014.3
20260906165738 97 121 1.0 2.0 0.00 0.00 0.00 45 1014.4
20260906165238 98 55 2.0 3.0 0.00 0.00 0.00 44 1014.3
20260906164738 97 106 3.0 5.0 0.00 0.00 0.00 45 1014.6
20260906164232 95 142 2.0 3.0 0.00 0.00 0.00 46 1014.5
20260906163729 96 62 5.0 6.0 0.00 0.00 0.00 46 1014.6
20260906163225 95 88 2.0 2.0 0.00 0.00 0.00 48 1014.5
20260906162721 93 102 0.0 1.0 0.00 0.00 0.00 52 1014.7
20260906162216 93 103 0.0 0.0 0.00 0.00 0.00 54 1014.4
20260906161711 91 48 2.0 2.0 0.00 0.00 0.00 55 1014.5
20260906161210 90 339 3.0 3.0 0.00 0.00 0.00 58 1014.5
20260906160709 89 325 5.0 6.0 0.00 0.00 0.00 59 1014.5
20260906160209 89 289 3.0 5.0 0.00 0.00 0.00 60 1014.5
20260906155706 89 300 5.0 6.0 0.00 0.00 0.00 59 1014.6
20260906155201 89 322 4.0 5.0 0.00 0.00 0.00 58 1014.6
20260906154656 89 227 2.0 2.0 0.00 0.00 0.00 59 1014.5
20260906154151 89 297 4.0 6.0 0.00 0.00 0.00 59 1014.5
20260906153649 88 263 5.0 6.0 0.00 0.00 0.00 60 1014.5
20260906153145 88 275 5.0 6.0 0.00 0.00 0.00 60 1014.5
20260906152645 88 342 3.0 3.0 0.00 0.00 0.00 60 1014.6
20260906152139 88 253 3.0 3.0 0.00 0.00 0.00 61 1014.5
20260906151634 88 138 1.0 1.0 0.00 0.00 0.00 61 1014.6
20260906151130 87 260 4.0 5.0 0.00 0.00 0.00 61 1014.3
20260906150625 88 101 2.0 2.0 0.00 0.00 0.00 60 1014.4
20260906150120 88 195 2.0 2.0 0.00 0.00 0.00 61 1014.2
20260906145619 87 169 3.0 3.0 0.00 0.00 0.00 61 1014.3
20260906145113 87 194 3.0 3.0 0.00 0.00 0.00 61 1014.4
20260906144608 89 126 0.0 1.0 0.00 0.00 0.00 60 1014.6
20260906144103 87 160 1.0 1.0 0.00 0.00 0.00 62 1014.3
20260906143558 87 142 1.0 1.0 0.00 0.00 0.00 62 1014.7
20260906143055 88 86 1.0 1.0 0.00 0.00 0.00 60 1014.5
20260906142554 88 149 2.0 2.0 0.00 0.00 0.00 61 1014.5
20260906142050 88 146 1.0 2.0 0.00 0.00 0.00 61 1014.4
20260906141548 88 126 0.0 1.0 0.00 0.00 0.00 61 1014.5
20260906141044 88 124 0.0 1.0 0.00 0.00 0.00 62 1014.2
20260906140542 87 118 0.0 0.0 0.00 0.00 0.00 63 1014.5
20260906140037 87 113 1.0 1.0 0.00 0.00 0.00 64 1014.3
20260906135534 87 126 1.0 2.0 0.00 0.00 0.00 64 1014.2
20260906135031 86 120 1.0 1.0 0.00 0.00 0.00 65 1014.3
20260906134525 85 123 0.0 0.0 0.00 0.00 0.00 66 1014.1
20260906134020 84 124 1.0 2.0 0.00 0.00 0.00 67 1014.2
20260906133516 84 137 1.0 1.0 0.00 0.00 0.00 68 1014.0
20260906133012 83 112 1.0 1.0 0.00 0.00 0.00 70 1014.0
20260906132507 82 115 0.0 0.0 0.00 0.00 0.00 71 1014.2
20260906132002 82 104 1.0 2.0 0.00 0.00 0.00 71 1014.1
20260906131457 80 110 0.0 0.0 0.00 0.00 0.00 74 1013.9
20260906130953 79 101 1.0 1.0 0.00 0.00 0.00 76 1014.1
20260906130451 78 96 1.0 1.0 0.00 0.00 0.00 77 1014.2
20260906125946 78 93 0.0 0.0 0.00 0.00 0.00 78 1014.2
20260906125443 77 94 0.0 0.0 0.00 0.00 0.00 78 1014.0
20260906124938 77 92 1.0 1.0 0.00 0.00 0.00 79 1014.0
20260906124434 76 131 0.0 0.0 0.00 0.00 0.00 80 1013.8
20260906123933 76 131 1.0 1.0 0.00 0.00 0.00 80 1013.7
20260906123432 76 131 1.0 1.0 0.00 0.00 0.00 81 1013.9
20260906122927 76 131 0.0 0.0 0.00 0.00 0.00 80 1013.7
20260906122422 76 131 0.0 0.0 0.00 0.00 0.00 80 1013.6
20260906121919 76 131 0.0 0.0 0.00 0.00 0.00 80 1013.3
20260906121415 76 132 0.0 1.0 0.00 0.00 0.00 80 1013.6
20260906120911 76 132 0.0 0.0 0.00 0.00 0.00 80 1013.4
20260906120406 76 132 1.0 1.0 0.00 0.00 0.00 80 1013.4
20260906115902 76 117 1.0 1.0 0.00 0.00 0.00 80 1013.4
20260906115358 75 113 0.0 0.0 0.00 0.00 0.00 80 1013.2
20260906114857 75 113 0.0 0.0 0.00 0.00 0.00 80 1013.4
20260906114352 76 113 0.0 1.0 0.00 0.00 0.00 79 1013.2
20260906113848 76 113 1.0 1.0 0.00 0.00 0.00 78 1013.3
20260906113346 77 112 0.0 1.0 0.00 0.00 0.00 78 1013.4
20260906112842 77 110 0.0 0.0 0.00 0.00 0.00 78 1012.8
20260906112337 77 110 0.0 0.0 0.00 0.00 0.00 78 1012.9
20260906111831 77 111 1.0 1.0 0.00 0.00 0.00 77 1013.3
20260906111326 77 106 1.0 2.0 0.00 0.00 0.00 77 1013.2
20260906110821 77 98 1.0 1.0 0.00 0.00 0.00 77 1013.2
20260906110317 77 84 2.0 2.0 0.00 0.00 0.00 77 1013.0
20260906105815 78 82 2.0 2.0 0.00 0.00 0.00 76 1013.0
20260906105311 78 74 3.0 3.0 0.00 0.00 0.00 76 1013.0
20260906104807 78 87 2.0 2.0 0.00 0.00 0.00 75 1012.9
20260906104305 78 85 2.0 2.0 0.00 0.00 0.00 75 1013.0
20260906103804 78 81 2.0 2.0 0.00 0.00 0.00 75 1012.8
20260906103303 78 89 1.0 1.0 0.00 0.00 0.00 75 1012.6
20260906102800 78 94 1.0 1.0 0.00 0.00 0.00 76 1012.8
20260906102258 78 93 0.0 0.0 0.00 0.00 0.00 76 1012.9
20260906101754 78 95 1.0 1.0 0.00 0.00 0.00 75 1013.0
20260906101254 79 97 0.0 0.0 0.00 0.00 0.00 75 1012.8
20260906100749 79 96 0.0 0.0 0.00 0.00 0.00 74 1012.7
20260906100248 79 76 1.0 1.0 0.00 0.00 0.00 75 1012.8
20260906095744 79 129 1.0 1.0 0.00 0.00 0.00 75 1012.8
20260906095239 79 131 0.0 0.0 0.00 0.00 0.00 74 1012.9
20260906094738 79 131 0.0 0.0 0.00 0.00 0.00 74 1012.7
20260906094234 79 131 0.0 0.0 0.00 0.00 0.00 74 1012.7
20260906093730 79 131 0.0 1.0 0.00 0.00 0.00 74 1012.8
20260906093225 79 131 0.0 0.0 0.00 0.00 0.00 73 1012.7
20260906092721 79 132 1.0 1.0 0.00 0.00 0.00 73 1012.9
20260906092220 79 130 0.0 0.0 0.00 0.00 0.00 74 1012.8
20260906091716 79 130 0.0 0.0 0.00 0.00 0.00 73 1012.6
20260906091212 80 130 0.0 0.0 0.00 0.00 0.00 73 1012.6
20260906090708 80 130 0.0 1.0 0.00 0.00 0.00 72 1012.5
20260906090208 80 131 1.0 1.0 0.00 0.00 0.00 72 1012.6
20260906085707 81 130 0.0 1.0 0.00 0.00 0.00 71 1012.2
20260906085206 81 131 0.0 1.0 0.00 0.00 0.00 71 1012.4
20260906084700 81 131 0.0 1.0 0.00 0.00 0.00 71 1012.3
20260906084155 81 131 0.0 0.0 0.00 0.00 0.00 70 1012.4
20260906083650 81 131 0.0 0.0 0.00 0.00 0.00 71 1012.5
20260906083145 81 131 0.0 0.0 0.00 0.00 0.00 70 1012.3
20260906082640 82 132 0.0 1.0 0.00 0.00 0.00 69 1012.5
20260906082135 81 126 1.0 1.0 0.00 0.00 0.00 70 1012.4
20260906081626 82 123 0.0 0.0 0.00 0.00 0.00 69 1012.3
20260906081121 82 123 0.0 0.0 0.00 0.00 0.00 69 1012.5
20260906080617 82 117 0.0 1.0 0.00 0.00 0.00 69 1012.4
20260906080113 81 123 1.0 1.0 0.00 0.00 0.00 70 1012.3
20260906075607 81 121 1.0 1.0 0.00 0.00 0.00 70 1012.4
20260906075102 82 114 0.0 0.0 0.00 0.00 0.00 69 1012.3
20260906074557 82 113 1.0 1.0 0.00 0.00 0.00 69 1012.2
20260906074055 82 74 0.0 1.0 0.00 0.00 0.00 69 1012.2
20260906073550 82 71 0.0 1.0 0.00 0.00 0.00 69 1012.4
20260906073047 82 68 1.0 1.0 0.00 0.00 0.00 69 1012.3
20260906072541 82 80 1.0 1.0 0.00 0.00 0.00 69 1012.7
20260906072037 82 105 0.0 1.0 0.00 0.00 0.00 69 1012.6
20260906071533 82 113 0.0 0.0 0.00 0.00 0.00 69 1012.7
20260906071028 83 121 0.0 0.0 0.00 0.00 0.00 68 1012.3
20260906070525 83 128 1.0 1.0 0.00 0.00 0.00 67 1012.7
20260906070020 83 137 1.0 2.0 0.00 0.00 0.00 67 1012.7
20260906065519 84 135 0.0 1.0 0.00 0.00 0.00 66 1012.6
20260906065015 83 128 0.0 0.0 0.00 0.00 0.00 66 1012.8
20260906064511 84 131 0.0 1.0 0.00 0.00 0.00 66 1013.0
20260906064005 84 146 3.0 3.0 0.00 0.00 0.00 65 1012.7
20260906063501 84 134 0.0 0.0 0.00 0.00 0.00 65 1012.8
20260906062956 85 143 1.0 2.0 0.00 0.00 0.00 64 1012.6
20260906062451 85 138 2.0 3.0 0.00 0.00 0.00 64 1012.7
20260906061946 84 148 1.0 2.0 0.00 0.00 0.00 65 1012.6
20260906061442 85 137 1.0 1.0 0.00 0.00 0.00 64 1012.8
20260906060936 84 136 1.0 1.0 0.00 0.00 0.00 64 1013.2
20260906060433 84 132 0.0 0.0 0.00 0.00 0.00 64 1012.9
20260906055929 84 175 2.0 5.0 0.00 0.00 0.00 64 1013.0
20260906055425 84 173 2.0 2.0 0.00 0.00 0.00 64 1013.3
20260906054920 84 147 3.0 3.0 0.00 0.00 0.00 64 1012.9
20260906054415 85 141 1.0 2.0 0.00 0.00 0.00 63 1012.8
20260906053911 85 148 2.0 2.0 0.00 0.00 0.00 63 1013.0
20260906053407 85 147 3.0 5.0 0.00 0.00 0.00 62 1013.6
20260906052903 85 155 3.0 5.0 0.00 0.00 0.00 62 1013.4
20260906052358 85 149 3.0 5.0 0.00 0.00 0.00 61 1013.0
20260906051854 85 172 3.0 3.0 0.00 0.00 0.00 61 1013.2
20260906051349 86 148 1.0 1.0 0.00 0.00 0.00 61 1013.2
20260906050844 86 141 1.0 1.0 0.00 0.00 0.00 60 1013.4
20260906050339 86 141 2.0 2.0 0.00 0.00 0.00 60 1013.2
20260906045837 86 152 2.0 2.0 0.00 0.00 0.00 59 1013.0
20260906045326 86 172 3.0 3.0 0.00 0.00 0.00 59 1012.9
20260906044823 86 148 3.0 5.0 0.00 0.00 0.00 58 1013.3
20260906044317 86 141 3.0 5.0 0.00 0.00 0.00 58 1013.2
20260906043813 86 149 3.0 3.0 0.00 0.00 0.00 57 1013.0
20260906043309 87 160 2.0 2.0 0.00 0.00 0.00 57 1013.2
20260906042809 87 154 2.0 2.0 0.00 0.00 0.00 57 1012.8
20260906042308 87 206 4.0 7.0 0.00 0.00 0.00 57 1012.9
20260906041804 87 168 3.0 5.0 0.00 0.00 0.00 56 1013.0
20260906041259 87 173 4.0 6.0 0.00 0.00 0.00 55 1012.8
20260906040754 88 141 3.0 5.0 0.00 0.00 0.00 55 1012.7
20260906040249 88 143 4.0 7.0 0.00 0.00 0.00 55 1012.7
20260906035744 88 157 3.0 3.0 0.00 0.00 0.00 54 1012.7
20260906035240 89 175 6.0 9.0 0.00 0.00 0.00 53 1012.5
20260906034739 89 151 4.0 5.0 0.00 0.00 0.00 52 1012.8
20260906034229 89 153 4.0 6.0 0.00 0.00 0.00 52 1012.6
20260906033725 89 160 3.0 6.0 0.00 0.00 0.00 51 1012.5
20260906033224 89 144 3.0 5.0 0.00 0.00 0.00 50 1012.8
20260906032721 89 150 4.0 6.0 0.00 0.00 0.00 50 1012.6
20260906032221 88 170 5.0 6.0 0.00 0.00 0.00 50 1012.6
20260906031716 88 134 1.0 1.0 0.00 0.00 0.00 50 1012.5
20260906031211 89 133 0.0 0.0 0.00 0.00 0.00 49 1012.4
20260906030711 89 150 1.0 1.0 0.00 0.00 0.00 49 1012.2
20260906030206 89 135 1.0 1.0 0.00 0.00 0.00 48 1012.2
20260906025706 89 144 1.0 1.0 0.00 0.00 0.00 48 1012.3
20260906025201 89 127 0.0 1.0 0.00 0.00 0.00 48 1012.3
20260906024654 89 119 1.0 1.0 0.00 0.00 0.00 48 1012.3
20260906024154 89 126 1.0 1.0 0.00 0.00 0.00 47 1012.3
20260906023650 89 135 1.0 2.0 0.00 0.00 0.00 47 1012.0
20260906023150 89 130 1.0 1.0 0.00 0.00 0.00 47 1012.0
20260906022644 90 158 1.0 2.0 0.00 0.00 0.00 47 1011.9
20260906022141 90 130 1.0 1.0 0.00 0.00 0.00 47 1011.8
20260906021636 90 122 0.0 1.0 0.00 0.00 0.00 46 1011.8
20260906021134 90 127 1.0 2.0 0.00 0.00 0.00 46 1011.5
20260906020629 90 125 1.0 1.0 0.00 0.00 0.00 46 1012.0
20260906020124 91 123 1.0 1.0 0.00 0.00 0.00 46 1011.9
20260906015618 91 127 2.0 2.0 0.00 0.00 0.00 45 1011.5
20260906015111 92 135 2.0 2.0 0.00 0.00 0.00 44 1011.5
20260906014606 92 127 1.0 1.0 0.00 0.00 0.00 44 1011.6
20260906014103 92 137 1.0 2.0 0.00 0.00 0.00 44 1011.3
20260906013558 93 121 2.0 2.0 0.00 0.00 0.00 43 1011.2
20260906013053 93 126 2.0 2.0 0.00 0.00 0.00 43 1011.2
20260906012548 93 148 2.0 2.0 0.00 0.00 0.00 43 1011.2
20260906012047 93 155 1.0 2.0 0.00 0.00 0.00 43 1011.3
20260906011544 93 146 2.0 2.0 0.00 0.00 0.00 42 1011.3
20260906011043 94 158 2.0 2.0 0.00 0.00 0.00 42 1011.1
20260906010539 94 140 2.0 2.0 0.00 0.00 0.00 42 1010.8
20260906010035 94 145 2.0 2.0 0.00 0.00 0.00 41 1010.9
20260906005534 94 139 2.0 2.0 0.00 0.00 0.00 40 1011.0
20260906005033 94 139 1.0 2.0 0.00 0.00 0.00 39 1010.8
20260906004533 95 131 1.0 1.0 0.00 0.00 0.00 39 1010.9
20260906004028 95 143 1.0 2.0 0.00 0.00 0.00 38 1011.0
20260906003523 96 136 1.0 2.0 0.00 0.00 0.00 38 1010.9
20260906003019 96 167 4.0 5.0 0.00 0.00 0.00 38 1010.6
20260906002513 96 169 3.0 3.0 0.00 0.00 0.00 38 1010.8
20260906002008 97 131 1.0 1.0 0.00 0.00 0.00 37 1010.9
20260906001504 98 154 2.0 3.0 0.00 0.00 0.00 37 1010.6
20260906000958 98 169 3.0 5.0 0.00 0.00 0.00 36 1010.5
20260906000455 98 149 2.0 2.0 0.00 0.00 0.00 36 1010.8
20260905235953 98 125 3.0 5.0 0.00 0.00 0.00 36 1010.8
20260905235448 99 141 1.0 1.0 0.00 0.00 0.00 36 1010.5
20260905234943 99 150 5.0 9.0 0.00 0.00 0.00 36 1010.4
20260905234438 100 142 3.0 5.0 0.00 0.00 0.00 35 1010.3
20260905233933 100 75 1.0 2.0 0.00 0.00 0.00 36 1010.5
20260905233429 100 149 2.0 3.0 0.00 0.00 0.00 35 1010.5
20260905232927 100 141 3.0 3.0 0.00 0.00 0.00 35 1010.5
20260905232423 100 146 1.0 3.0 0.00 0.00 0.00 34 1010.5
20260905231918 100 128 1.0 2.0 0.00 0.00 0.00 35 1010.5
20260905231415 101 143 2.0 2.0 0.00 0.00 0.00 34 1010.5
20260905230911 101 165 3.0 3.0 0.00 0.00 0.00 34 1010.3
20260905230408 101 137 2.0 3.0 0.00 0.00 0.00 33 1010.5
20260905225902 101 62 4.0 8.0 0.00 0.00 0.00 33 1010.3
20260905225356 101 152 2.0 3.0 0.00 0.00 0.00 33 1010.3
20260905224852 102 144 0.0 1.0 0.00 0.00 0.00 33 1010.5
20260905224347 102 23 5.0 8.0 0.00 0.00 0.00 32 1010.4
20260905223842 103 127 1.0 1.0 0.00 0.00 0.00 31 1010.3
20260905223340 102 152 3.0 8.0 0.00 0.00 0.00 32 1010.5
20260905222834 101 94 2.0 3.0 0.00 0.00 0.00 32 1010.3
20260905222333 102 174 3.0 5.0 0.00 0.00 0.00 33 1010.4
20260905221829 102 138 4.0 6.0 0.00 0.00 0.00 32 1010.5
20260905221326 102 168 3.0 3.0 0.00 0.00 0.00 32 1010.4
20260905220821 102 144 2.0 2.0 0.00 0.00 0.00 31 1010.5
20260905220318 102 136 5.0 8.0 0.00 0.00 0.00 31 1010.7
20260905215816 103 161 2.0 3.0 0.00 0.00 0.00 31 1010.6
20260905215313 102 147 1.0 2.0 0.00 0.00 0.00 31 1010.4
20260905214809 101 141 1.0 3.0 0.00 0.00 0.00 33 1010.6
20260905214304 102 87 3.0 3.0 0.00 0.00 0.00 32 1010.4
20260905213759 103 130 2.0 2.0 0.00 0.00 0.00 32 1010.7
20260905213255 103 93 0.0 1.0 0.00 0.00 0.00 32 1010.7
20260905212750 103 88 6.0 7.0 0.00 0.00 0.00 31 1010.7
20260905212249 102 197 2.0 5.0 0.00 0.00 0.00 32 1010.7
20260905211749 102 144 1.0 2.0 0.00 0.00 0.00 32 1010.7
20260905211244 101 133 1.0 1.0 0.00 0.00 0.00 33 1010.8
20260905210742 101 152 6.0 10.0 0.00 0.00 0.00 33 1010.9
20260905210240 101 168 1.0 1.0 0.00 0.00 0.00 33 1011.0
20260905205739 101 186 3.0 5.0 0.00 0.00 0.00 33 1011.1
20260905205234 103 143 6.0 9.0 0.00 0.00 0.00 32 1010.9
20260905204728 101 347 12.0 15.0 0.00 0.00 0.00 34 1010.8
20260905204224 102 139 2.0 3.0 0.00 0.00 0.00 33 1011.3
20260905203724 101 99 4.0 6.0 0.00 0.00 0.00 34 1011.3
20260905203219 100 99 1.0 2.0 0.00 0.00 0.00 35 1011.5
20260905202715 102 154 1.0 1.0 0.00 0.00 0.00 34 1011.5
20260905202210 102 151 2.0 2.0 0.00 0.00 0.00 34 1011.8
20260905201705 100 161 0.0 1.0 0.00 0.00 0.00 35 1011.8
20260905201204 101 96 6.0 9.0 0.00 0.00 0.00 35 1011.9
20260905200700 101 168 2.0 2.0 0.00 0.00 0.00 35 1011.9
20260905200155 101 173 1.0 2.0 0.00 0.00 0.00 35 1012.0
20260905195648 99 171 2.0 3.0 0.00 0.00 0.00 36 1011.9
20260905195143 98 135 2.0 3.0 0.00 0.00 0.00 38 1012.1
20260905194639 100 152 1.0 3.0 0.00 0.00 0.00 35 1012.0
20260905194137 99 96 2.0 5.0 0.00 0.00 0.00 36 1012.1
20260905193633 99 226 3.0 3.0 0.00 0.00 0.00 36 1012.5
20260905193132 99 154 1.0 1.0 0.00 0.00 0.00 35 1012.3
20260905192628 100 93 0.0 1.0 0.00 0.00 0.00 34 1012.6
20260905192125 100 159 3.0 5.0 0.00 0.00 0.00 35 1012.8
20260905191624 100 127 2.0 5.0 0.00 0.00 0.00 35 1012.7
20260905191122 98 145 2.0 2.0 0.00 0.00 0.00 37 1012.9
20260905190621 98 215 4.0 5.0 0.00 0.00 0.00 37 1012.8
20260905190121 99 316 2.0 2.0 0.00 0.00 0.00 36 1013.0
20260905185619 99 147 1.0 1.0 0.00 0.00 0.00 38 1013.2
20260905185114 97 138 3.0 5.0 0.00 0.00 0.00 38 1013.2
20260905184608 96 70 5.0 6.0 0.00 0.00 0.00 40 1013.2
20260905184107 98 76 6.0 7.0 0.00 0.00 0.00 37 1013.5
20260905183606 98 128 2.0 2.0 0.00 0.00 0.00 38 1013.3
20260905183102 98 140 3.0 5.0 0.00 0.00 0.00 39 1013.5
20260905182601 97 286 1.0 1.0 0.00 0.00 0.00 40 1013.5
20260905182056 99 143 1.0 2.0 0.00 0.00 0.00 38 1013.7
20260905181551 98 86 0.0 1.0 0.00 0.00 0.00 39 1013.5
20260905181050 96 37 1.0 2.0 0.00 0.00 0.00 41 1013.6
20260905180545 97 174 4.0 7.0 0.00 0.00 0.00 40 1013.7
20260905180041 98 92 1.0 2.0 0.00 0.00 0.00 40 1013.8
20260905175540 97 38 2.0 5.0 0.00 0.00 0.00 41 1014.1
20260905175036 95 135 0.0 1.0 0.00 0.00 0.00 43 1014.1
20260905174531 98 139 1.0 1.0 0.00 0.00 0.00 41 1014.2
20260905174026 98 159 2.0 2.0 0.00 0.00 0.00 40 1014.1
20260905173523 97 98 1.0 1.0 0.00 0.00 0.00 40 1014.1
20260905173018 95 156 1.0 2.0 0.00 0.00 0.00 44 1014.3
20260905172516 96 118 3.0 6.0 0.00 0.00 0.00 44 1014.3